Volver al catálogo

STARLINK-37754

ActivoComunicacionesVLEO
NORAD 69201·PAYLOAD·🇺🇸 United States

Lanzado May 25, 2026 desde Cape Canaveral Space Force Station

Loading…

Próximos Pases (próximas 24 horas)

TLE

ActualizadoSource: CelesTrak SupGP

Época: Sep 14, 2026, 23:33 UTC

1 69201C 26114V   26257.98173611  .00040809  00000+0  12080-2 0  2570
2 69201  53.1573 139.4249 0001447  85.8286 157.0355 15.34309384    16

Sigue STARLINK-37754 en tiempo real con AllMySat

Download on the App Store